Location: Blairvadach
(56.2780°N, 6.9720°W)
Time: 21:53:02
(UTC+00:00)

Envisat - Pass Details

Date: 23 November 2019
Orbit: 764 x 766 km, 98.1° (Epoch: 08 December)

Event Time Altitude Azimuth Distance (km) Brightness Sun altitude
Rises 06:47:22 0° 19° (NNE) 3,247 6.3 -12.3°
Reaches altitude 10° 06:49:51 10° 28° (NNE) 2,316 5.6 -12.0°
Maximum altitude 06:54:34 37° 95° (E) 1,184 4.7 -11.4°
Drops below altitude 10° 06:59:15 10° 163° (SSE) 2,299 6.0 -10.8°
Sets 07:01:43 0° 171° (S) 3,221 6.7 -10.4°
